Simultaneous Nadir Overpasses (SNOs) Predictions

Prediction of SNOs between AURA and NPP Satellite Orbit:

Table of predicted SNOs for the next 14.0 days since TLE Epoch: 11/1/2019
Index Date (AURA) Time (AURA) Lat,Lon (AURA) SZA (AURA ) Date (NPP) Time (NPP) Lat,Lon (NPP) SZA (NPP ) Distance(km) Time Diff (sec)
1 11/04/2019 02:51:54 -79.46,-146.54 73.28 11/04/2019 02:51:02 -79.46,-146.49 73.25 0.99 52
2 11/04/2019 03:41:15 79.64, 22.40 106.48 11/04/2019 03:41:41 79.64, 22.35 106.47 0.93 26
3 11/06/2019 19:08:22 -79.52, -30.22 72.57 11/06/2019 19:07:53 -79.53, -30.14 72.56 1.86 29
4 11/06/2019 19:57:42 79.74, 138.99 107.15 11/06/2019 19:58:31 79.74, 138.99 107.11 0.13 49
5 11/09/2019 11:24:52 -79.54, 85.79 71.82 11/09/2019 11:24:47 -79.53, 85.65 71.79 3.01 5
6 11/09/2019 12:14:10 79.83,-104.45 107.80 11/09/2019 12:15:22 79.83,-104.37 107.73 1.66 72
7 11/12/2019 02:51:59 79.39, 32.98 109.13 11/12/2019 02:51:00 79.38, 32.92 109.19 1.45 59
8 11/12/2019 03:41:20 -79.63,-157.70 71.19 11/12/2019 03:41:38 -79.63,-157.75 71.20 0.90 18
9 11/14/2019 19:08:26 79.51, 149.69 109.68 11/14/2019 19:07:50 79.51, 149.74 109.70 1.18 36




NCC Satellite Simultaneous Nadir Overpasses (SNOs) Prediction Service
